Current weather by "City, St" or "zip code"  
 
Advertise Here

Current Conditions: Colby Shaltz Field Airport, KS

Fair


61.0 F

Last Updated on May 30 2020, 1:55 am CDT
Humidity: 63%
Wind Speed: SE 17.3 G 24.2 mph
Barometer 30.15 in
Dewpoint: 48.2 F
Visibility: 10.00 mi
Precip: --
Heat Index: NA
Wind Chill: 58 F
Current conditions at:

Colby Shaltz Field Airport, KS (KCBK)

Lat: 39.43 Lon: 101.0511

Local Radar Image active severe weather and emergency alerts image image weather storm and storm spotter reports image weather observation monitoring service image
Local
Radar
Active
Alerts
Storm Reports Obs
Monitoring

Sign-up For Email & Text Message Weather Alert Notification Services


Advertise Here

Observation History for Colby Shaltz Field Airport, KS


Time Wind
(mph)
Vis
(mi)
Weather Precip (in) Temperature (F) Relative
Humidity
Wind
Chill
(F)
Heat
Index
(F)
Pressure
Air Dwpt altimeter
(in)
sea level
(mb)
Rmks
1:55 am CDT SE 17.3 G 24.2 10.00 Fair -- 61.0 48.2 63% 58 NA 30.15 M
12:55 am CDT SE 15.0 10.00 Fair -- 63.0 50.0 64% 61 NA 30.17 M
11:55 pm CDT SE 11.5 10.00 Fair -- 64.0 50.0 60% NA NA 30.18 M
10:55 pm CDT SE 15.0 10.00 Fair -- 66.0 50.0 56% NA NA 30.18 M
9:55 pm CDT SE 11.5 10.00 Fair -- 68.0 50.0 53% NA NA 30.17 M
8:55 pm CDT SE 15.0 10.00 Fair -- 72.0 50.0 47% NA NA 30.15 M
7:55 pm CDT SE 18.4 G 26.5 10.00 Fair -- 77.0 50.0 39% NA NA 30.14 M
6:55 pm CDT SE 24.2 G 31.1 10.00 Fair and Breezy -- 79.0 48.2 34% NA NA 30.13 M
5:55 pm CDT SE 19.6 G 27.6 10.00 Fair -- 81.0 46.4 30% NA 80 30.14 M
4:55 pm CDT SE 15.0 G 25.3 10.00 Fair -- 81.0 46.4 30% NA 80 30.15 M
3:55 pm CDT SE 15.0 G 24.2 10.00 Fair -- 81.0 46.4 30% NA 80 30.17 M
2:55 pm CDT SE 15.0 G 21.9 10.00 Fair -- 81.0 44.6 28% NA 80 30.19 M
1:55 pm CDT S 11.5 G 21.9 10.00 Fair -- 77.0 42.8 30% NA NA 30.20 M
12:55 pm CDT SE 15.0 G 18.4 10.00 Fair -- 75.0 44.6 34% NA NA 30.23 M
11:55 am CDT SE 16.1 10.00 Fair -- 72.0 42.8 36% NA NA 30.25 M
10:55 am CDT SE 15.0 G 20.7 10.00 Fair -- 70.0 41.0 35% NA NA 30.27 M
9:55 am CDT SE 12.7 10.00 Fair -- 64.0 37.4 37% NA NA 30.28 M
8:55 am CDT SE 17.3 10.00 Partly Cloudy -- 63.0 37.4 39% 61 NA 30.30 M
7:55 am CDT SE 6.9 10.00 Partly Cloudy -- 57.0 42.8 59% 56 NA 30.29 M
6:55 am CDT SE 4.6 10.00 Fair -- 50.0 42.8 76% 48 NA 30.29 M
5:55 am CDT SE 4.6 10.00 Fair -- 52.0 42.8 72% 51 NA 30.29 M
4:55 am CDT SE 3.5 10.00 Partly Cloudy -- 52.0 46.4 82% NA NA 30.29 M
3:55 am CDT SE 3.5 10.00 Partly Cloudy -- 52.0 46.4 82% NA NA 30.28 M
2:55 am CDT NE 6.9 10.00 Mostly Cloudy -- 54.0 46.4 77% 52 NA 30.28 M

Regional Weather Observation


ST FRANCIS, KS (KSYF)

Partly Cloudy and Breezy
65.0 F

Goodland, Renner Field, KS (KGLD)

Fair
63.0 F

McCook, McCook Municipal Airport, NE (KMCK)

Fair
61.0 F

Burlington - Carson County Airport, CO (KITR)

Fair
65.0 F

Imperial, Imperial Municipal Airport, NE (KIML)

Partly Cloudy
62.0 F

Wray Municipal Airport, CO (K2V5)

Fair
66.0 F